STARLINK-2422, 47832

Orbit data source: Space-Track

STARLINK-2422, 47832 is a payload satellite owned by SpaceX/Seattle (US) in LEO that was launched on Thu, 11 Mar 2021 UTC via an FALCON 9 launch vehicle from the Air Force Eastern Test Range (AFETR). Payload-class satellites include a variety of spacecraft equipped with specific instruments for various scientific and technological missions. These include communications satellites like Starlink; space stations such as the ISS; scientific satellites like the Hubble; Earth observation satellites from companies like Planet Labs, Umbra, and HawkEye 360; GPS; miniature CubeSats for education and research; and military/defense satellites.

Loading next visibility...
Identifier
47832, 2021-018AX
Orbit
LEO
Country
Flag of USUS
Related business
Manufacturer
SpaceX/Seattle
Mission
Operational Commercial Communications
Bus & Motor
STARLINK, Unknown motor
Mass
260 kg wet, ~248 kg dry
Launch date (UTC)
2021-03-11 (5 years ago)
Launch vehicle
FALCON 9
Launch site
Air Force Eastern Test Range (AFETR)
Object type
Payload
Rocket body
Debris
Shape & HBR
Box + 1 Pan, 10.1 m
Radar Cross Section
13.562 m², Large (>1 m²)

Expand to show TLE details & history
Last TLE update: 2 days ago

TLE from 2 days ago
0 STARLINK-2422
1 47832U 21018AX  26171.16432414  .00000583  00000-0  30566-4 0  9998
2 47832  53.1606 128.9778 0001178  89.0404 271.0732 15.31699846292389
Epoch: 2026-06-20T03:56Z
TLE epoch observation values (Epoch: 2026-06-20T03:56:37.605Z)
Latitude
-0.00007°
Longitude
161.43819°
Altitude
471.626 km
Speed
7.631 km/s
True Right ascension
08h 35m 54s
True Declination
0° 00' 00"
Sunlit
Object was in daylight at epoch
Visualization orbit readout
Latitude
Unknown
Longitude
Unknown
Altitude
Unknown
Speed
Unknown
Apparent Right ascension
Unknown
Apparent Declination
Unknown
Sunlit
N/A
Visualization observer readout
Local Sidereal Time
23:19:36
Azimuth
Unknown
Elevation
Unknown
Doppler factor
Unknown
Orbital elements
Apogee altitude
471.804 km
Perigee altitude
470.19 km
Semi-major axis
6,849.134 km
Eccentricity
0.00012
Inclination
53.1606°
RAAN
128.9778°
Arg. of periapsis
89.0404°
True anomaly
271.0597°
Mean anomaly
271.0732°
Eccentric anomaly
271.06645°
Mean motion
3.82904 °/min
Orbital period
94.02 mins
BSTAR
0.000030566
Loading maneuver chart data...
Computing Atmospheric mass density...
Loading historical data...
Loading historical data...
Loading historical data...
Loading historical data...
Loading historical data...
Loading historical data...
Loading historical data...

Documentation

Showing up to 5 results
|